Location: Unspecified
(48.2082°N, 0.0000°E)
Time: 22:45:08
(UTC+00:00)

Transit 4A - Pass Details

Date: 26 June 2019
Orbit: 862 x 982 km, 66.8° (Epoch: 21 July)

Event Time Altitude Azimuth Distance (km) Brightness Sun altitude
Rises 06:05:47 0° 172° (S) 3,609 10.9 17.7°
Reaches altitude 10° 06:08:44 10° 159° (SSE) 2,686 10.5 18.2°
Maximum altitude 06:13:42 25° 107° (ESE) 1,847 10.7 19.0°
Drops below altitude 10° 06:18:45 10° 55° (NE) 2,739 11.9 19.8°
Sets 06:21:46 0° 43° (NE) 3,695 11.9 20.3°
